Location: Erdweis
(48.5167°N, 15.3500°E)
Time: 01:55:06
(UTC+00:00)

SPOT 5 - Pass Details

Date: 18 September 2020
Orbit: 623 x 815 km, 98.3° (Epoch: 31 October)

Event Time Altitude Azimuth Distance (km) Brightness Sun altitude
Exits shadow 20:40:10 45° 344° (NNW) 1,064 4.0 -32.4°
Drops below altitude 10° 20:43:50 10° 346° (NNW) 2,391 6.3 -32.8°
Sets 20:46:13 0° 346° (NNW) 3,340 7.2 -33.1°
